{"data":{"norad_id":41793,"intl_designator":"2016-060A","name":"GSAT-18","alt_names":[],"object_type":"PAYLOAD","status":"ACTIVE","operator":null,"country":"IND","launch_date":"2016-10-05","launch_site_code":"FRGUI","launch_vehicle":null,"mission":null,"orbit_class":"UNKNOWN","rcs_meters":0.003,"size_class":null,"mass_kg":null,"dimensions":null,"purposes":["comms"],"wikipedia_slug":null,"has_3d_model":false,"image_url":null,"decayed_at":null,"tle_current":{"epoch":"2026-05-25T04:05:45.234816Z","epoch_age_seconds":56259,"freshness":"FRESH","line1":"1 41793U 16060A   26145.17066244 -.00000079  00000+0  00000+0 0  9990","line2":"2 41793   0.0676  96.9541 0005578 330.3731 310.8784  1.00271839 35295","mean_motion":1.00271839,"eccentricity":0.0005578,"inclination_deg":0.0676,"raan_deg":96.9541,"arg_perigee_deg":330.3731,"mean_anomaly_deg":310.8784,"bstar":0,"rev_number":3529,"period_min":1436.0961306394,"perigee_km":35763.060343993,"apogee_km":35810.099302081,"semimajor_km":42164.716823037,"source":"CELESTRAK","updated_at":"2026-05-25T13:38:14.007673Z"}}}